Location: Marlborough
(51.4223°N, 1.7415°W)
Time: 07:38:53
(UTC+01:00)

Envisat - Pass Details

Date: 30 May 2024
Orbit: 762 x 764 km, 98.3° (Epoch: 13 June)

Event Time Altitude Azimuth Distance (km) Brightness Sun altitude
Rises 03:07:07 0° 27° (NNE) 3,239 8.4 -12.0°
Reaches altitude 10° 03:10:18 10° 48° (NE) 2,307 6.8 -11.7°
Maximum altitude 03:13:30 17° 87° (E) 1,883 5.5 -11.5°
Drops below altitude 10° 03:16:41 10° 127° (SE) 2,296 5.4 -11.2°
Sets 03:19:49 0° 147° (SSE) 3,216 6.0 -11.0°
